Flag for Russia Weather past 2 weeks in Kazan, Russia

Now
10 °F

Light snow. Overcast.


Feels Like: -6 °F
Forecast: 9 / 18 °F
Wind: 15 mph from Northwest

Location: Kazan'

Current Time: Dec 26, 2014 at 11:00:54 AM

Latest Report: Dec 26, 2014 at 10:30 AM


Visibility: N/A

Pressure: 29.56 "Hg

Humidity: 85%

Dew point: 7 °F

Location of KazanLocation

Historic Weather in Kazan — Graph

°F

Kazan temperature yesterday

Maximum temperature yesterday: 28 °F (at 12:00 AM)
Minimum temperature yesterday: 12 °F (at 5:30 PM)
Average temperature yesterday: 21 °F

Past Weeks' High & Low Weather Summary

 TemperatureHumidityPressure
High36 °F (Dec 13, 2:30 AM)100% (Dec 11, 9:00 AM)30.36 "Hg (Dec 11, 9:00 AM)
Low10 °F (Dec 26, 8:00 AM)74% (Dec 11, 7:00 PM)29.03 "Hg (Dec 24, 11:30 AM)
Average27 °F95%29.82 "Hg
* Reported Dec 11 9:00 AM — Dec 26 9:30 AM, Kazan, Weather by CustomWeather, © 2014

Note: Actual official high and low records may vary slightly from our data, if they occured in-between our weather recording intervals... More about our weather records

Advertising

Kazan weather history for previous 24 hours

 ConditionsComfort  
Time TempWeatherWind HumidityBarometerVisibility
9:30 AM
Dec 26
10 °FLight snow. Overcast.17 mph85%29.50 "Hg3 mi
9:00 AM10 °FLight snow. Overcast.15 mph85%29.50 "Hg3 mi
8:30 AM10 °FLight snow. Overcast.15 mph85%29.47 "HgN/A
8:00 AM10 °FLight snow. Overcast.15 mph85%29.47 "HgN/A
7:30 AM12 °FLight snow. Overcast.13 mph85%29.45 "HgN/A
7:00 AM12 °FLight snow. Overcast.15 mph85%29.42 "HgN/A
6:30 AM14 °FLight snow. Overcast.13 mph85%29.39 "HgN/A
5:30 AM14 °FLight snow. Overcast.13 mph92%29.33 "HgN/A
5:00 AM14 °FLight snow. Overcast.10 mph92%29.33 "HgN/A
4:30 AM14 °FLight snow. Overcast.10 mph92%29.30 "HgN/A
4:00 AM14 °FOvercast.8 mph92%29.30 "HgN/A
3:30 AM16 °FOvercast.8 mph93%29.30 "HgN/A
3:00 AM16 °FLight snow. Overcast.8 mph93%29.27 "HgN/A
2:30 AM16 °FLight snow. Overcast.8 mph100%29.27 "Hg3 mi
2:00 AM16 °FSnow. Overcast.8 mph100%29.27 "Hg1 mi
1:30 AM16 °FSnow. Overcast.10 mph100%29.27 "Hg1 mi
1:00 AM16 °FSnow. Overcast.8 mph100%29.27 "Hg1 mi
12:30 AM16 °FSnow. Overcast.8 mph100%29.27 "Hg1 mi
12:00 AM16 °FSnow. Overcast.8 mph100%29.27 "Hg1 mi
11:30 PM
Dec 25
16 °FSnow. Overcast.8 mph93%29.27 "Hg1 mi
11:00 PM16 °FSnow. Overcast.8 mph93%29.27 "Hg1 mi
10:30 PM16 °FSnow. Overcast.8 mph93%29.30 "Hg1 mi
10:00 PM16 °FOvercast.6 mph93%29.30 "HgN/A
9:30 PM16 °FOvercast.6 mph93%29.30 "HgN/A
9:00 PM16 °FOvercast.8 mph93%29.30 "HgN/A
8:30 PM16 °FOvercast.6 mph93%29.33 "HgN/A
8:00 PM16 °FPassing clouds.8 mph93%29.33 "HgN/A
7:30 PM16 °FPassing clouds.6 mph93%29.36 "HgN/A
7:00 PM14 °FPartly cloudy.3 mph92%29.36 "HgN/A
6:30 PM14 °FPartly cloudy.3 mph92%29.36 "HgN/A
6:00 PM12 °FPartly cloudy.6 mph92%29.39 "HgN/A
5:30 PM12 °FPassing clouds.6 mph100%29.39 "HgN/A
5:00 PM14 °FPassing clouds.6 mph92%29.39 "HgN/A
4:30 PM16 °FPassing clouds.8 mph93%29.39 "HgN/A
4:00 PM16 °FPartly sunny.6 mph93%29.42 "HgN/A
3:30 PM18 °FOvercast.6 mph93%29.42 "HgN/A
3:00 PM19 °FOvercast.8 mph86%29.42 "HgN/A
2:30 PM19 °FLight snow. Overcast.8 mph93%29.42 "HgN/A
2:00 PM21 °FLight snow. Overcast.8 mph86%29.42 "HgN/A
1:30 PM21 °FOvercast.8 mph80%29.42 "HgN/A
1:00 PM21 °FPartly sunny.8 mph86%29.42 "HgN/A
12:30 PM21 °FPartly sunny.15 mph86%29.42 "HgN/A
12:00 PM21 °FPartly sunny.15 mph86%29.39 "HgN/A
11:30 AM21 °FPartly sunny.15 mph86%29.39 "HgN/A
11:00 AM21 °FPartly sunny.15 mph86%29.39 "HgN/A
Weather by CustomWeather, © 2014

See weather overviewHow to use our weather pages